Downstream station:
SHEF ID: ENWK1 CROOKED C NR ENGLEWOOD, KS
STATION TYPE:
Regulating: Stage = 6.50, Flow = 243
PRECIP STAGE RIV-FLOW BAT-LOAD
in ft cfs volt
Ccp-Rev Ccp-Rev Ccp-Rev Ccp-Rev
(US/Central)
01/21 00:00 0.00 2.67 7 12.77
01/21 01:00 0.00 2.73 8 12.77
01/21 02:00 0.00 2.79 9 12.71
01/21 03:00 0.00 2.84 10 12.71
01/21 04:00 0.00 2.88 11 12.71
01/21 05:00 0.00 2.91 11 12.65
01/21 06:00 0.00 2.90 11 12.60
01/21 07:00 0.00 2.86 10 12.54
01/21 08:00 0.00 2.83 10 12.48
01/21 09:00 0.00 2.80 9 13.83
01/21 10:00 0.00 2.78 9 14.82
01/21 11:00 0.00 2.71 7 14.82
01/21 12:00 0.00 2.47 4 14.71
01/21 13:00 0.00 2.36 3 14.65
01/21 14:00 0.00 2.32 2 14.30
01/21 15:00 0.00 2.35 3 14.18
01/21 16:00 0.00 2.40 3 14.53
01/21 17:00 0.00 2.42 3 14.12
01/21 18:00 0.00 2.41 3 14.00
01/21 19:00 0.00 2.41 3 13.36
01/21 20:00 0.00 2.40 3 13.00
01/21 21:00 0.00 2.42 3 12.95
01/21 22:00 0.00 2.42 3 12.89
01/21 23:00 ---- ---- ---- ----